• en France
  • Liste des pays
  • À 7 jours
  • Température de l'eau
  • Carte satellitaire
  • Carte météo
  • Widgets météo
  • user-avatar
    Se connecter

    Météo par heure à Balchik

    Ce jour, 16 Janvier, Mardi

    Heure Température Précipitation Vent Pression Humidité
    00:00 -4°C° 0,5 mm 2 m/s 745 mmHg 91%
    01:00 -4°C° 0,5 mm 2 m/s 744 mmHg 93%
    02:00 -3°C° 0 mm 2 m/s 744 mmHg 95%
    03:00 -3°C° 0,5 mm 2 m/s 743 mmHg 96%
    04:00 -3°C° 0,5 mm 2 m/s 743 mmHg 96%
    05:00 -3°C° 0,5 mm 2 m/s 742 mmHg 97%
    06:00 -3°C° 0,3 mm 2 m/s 742 mmHg 97%
    07:00 -3°C° 0,3 mm 2 m/s 741 mmHg 97%
    08:00 -5°C° 0,3 mm 3 m/s 741 mmHg 96%
    09:00 -5°C° 0 mm 3 m/s 740 mmHg 95%
    10:00 -4°C° 0 mm 3 m/s 740 mmHg 93%
    11:00 -4°C° 0 mm 3 m/s 740 mmHg 91%
    12:00 -4°C° 0 mm 3 m/s 739 mmHg 90%
    13:00 -4°C° 0 mm 3 m/s 739 mmHg 89%
    14:00 -2°C° 0 mm 3 m/s 738 mmHg 88%
    15:00 -3°C° 0 mm 2 m/s 738 mmHg 89%
    16:00 -3°C° 0 mm 2 m/s 737 mmHg 90%
    17:00 -2°C° 0 mm 1 m/s 737 mmHg 91%
    18:00 -3°C° 0 mm 2 m/s 736 mmHg 92%
    19:00 -3°C° 0 mm 2 m/s 736 mmHg 92%
    20:00 -2°C° 0 mm 3 m/s 735 mmHg 92%
    21:00 -2°C° 0 mm 3 m/s 735 mmHg 93%
    22:00 -1°C° 0 mm 3 m/s 735 mmHg 93%
    23:00 -1°C° 0 mm 4 m/s 734 mmHg 94%

    Demain, 17 Janvier, Mercredi

    Heure Température Précipitation Vent Pression Humidité
    00:00 -1°C° 0 mm 4 m/s 734 mmHg 93%
    01:00 -1°C° 0 mm 4 m/s 733 mmHg 93%
    02:00 0°C° 0 mm 3 m/s 733 mmHg 92%
    03:00 0°C° 0 mm 3 m/s 732 mmHg 91%
    04:00 0°C° 0 mm 3 m/s 732 mmHg 89%
    05:00 0°C° 0 mm 3 m/s 731 mmHg 88%
    06:00 0°C° 0 mm 3 m/s 731 mmHg 87%
    07:00 0°C° 0 mm 3 m/s 731 mmHg 86%
    08:00 0°C° 0 mm 3 m/s 731 mmHg 85%
    09:00 0°C° 0 mm 4 m/s 730 mmHg 85%
    10:00 +1°C° 0 mm 4 m/s 730 mmHg 85%
    11:00 +4°C° 0 mm 4 m/s 729 mmHg 86%
    12:00 +3°C° 0 mm 5 m/s 728 mmHg 83%
    13:00 +4°C° 0 mm 6 m/s 727 mmHg 81%
    14:00 +5°C° 0 mm 7 m/s 726 mmHg 78%
    15:00 +5°C° 0 mm 7 m/s 725 mmHg 79%
    16:00 +5°C° 0 mm 7 m/s 724 mmHg 80%
    17:00 +5°C° 0 mm 7 m/s 723 mmHg 80%
    18:00 +5°C° 0,3 mm 8 m/s 722 mmHg 81%
    19:00 +5°C° 0,3 mm 8 m/s 721 mmHg 83%
    20:00 +6°C° 0,3 mm 9 m/s 721 mmHg 84%
    21:00 +5°C° 0,9 mm 9 m/s 720 mmHg 85%
    22:00 +5°C° 0,9 mm 9 m/s 720 mmHg 86%
    23:00 +3°C° 0,9 mm 9 m/s 720 mmHg 87%

    Après-demain, 18 Janvier, Jeudi

    Heure Température Précipitation Vent Pression Humidité
    00:00 +2°C° 0,1 mm 9 m/s 720 mmHg 86%
    01:00 +1°C° 0,1 mm 10 m/s 721 mmHg 85%
    02:00 -1°C° 0,1 mm 11 m/s 721 mmHg 85%
    03:00 -2°C° 0,4 mm 10 m/s 722 mmHg 83%
    04:00 -2°C° 0,4 mm 10 m/s 723 mmHg 82%
    05:00 -2°C° 0,4 mm 10 m/s 723 mmHg 80%
    06:00 -2°C° 0,3 mm 10 m/s 725 mmHg 78%
    07:00 -3°C° 0,3 mm 10 m/s 726 mmHg 75%
    08:00 -3°C° 0,3 mm 10 m/s 727 mmHg 73%
    09:00 -3°C° 0 mm 10 m/s 728 mmHg 69%
    10:00 -3°C° 0 mm 10 m/s 729 mmHg 65%
    11:00 -2°C° 0 mm 10 m/s 731 mmHg 61%
    12:00 -2°C° 0 mm 10 m/s 731 mmHg 59%
    13:00 -2°C° 0 mm 10 m/s 732 mmHg 58%
    14:00 0°C° 0 mm 10 m/s 732 mmHg 57%
    15:00 -1°C° 0 mm 9 m/s 733 mmHg 59%
    16:00 -1°C° 0 mm 8 m/s 734 mmHg 62%
    17:00 -2°C° 0 mm 7 m/s 734 mmHg 64%
    18:00 -2°C° 0 mm 7 m/s 735 mmHg 67%
    19:00 -2°C° 0 mm 7 m/s 735 mmHg 70%
    20:00 -3°C° 0 mm 7 m/s 736 mmHg 72%
    21:00 -3°C° 0 mm 6 m/s 736 mmHg 74%
    22:00 -2°C° 0 mm 5 m/s 736 mmHg 75%
    23:00 -3°C° 0 mm 4 m/s 736 mmHg 77%

    19 Janvier, Vendredi

    Heure Température Précipitation Vent Pression Humidité
    00:00 -3°C° 0 mm 4 m/s 736 mmHg 75%
    01:00 -3°C° 0 mm 4 m/s 736 mmHg 74%
    02:00 -2°C° 0 mm 4 m/s 735 mmHg 73%
    03:00 -2°C° 0 mm 5 m/s 735 mmHg 69%
    04:00 -1°C° 0 mm 5 m/s 735 mmHg 65%
    05:00 -2°C° 0 mm 6 m/s 735 mmHg 62%
    06:00 -2°C° 0 mm 6 m/s 735 mmHg 60%
    07:00 -1°C° 0 mm 6 m/s 735 mmHg 58%
    08:00 -1°C° 0 mm 6 m/s 735 mmHg 56%
    09:00 +2°C° 0 mm 6 m/s 735 mmHg 54%
    10:00 +3°C° 0 mm 6 m/s 735 mmHg 51%
    11:00 +5°C° 0 mm 6 m/s 735 mmHg 48%
    12:00 +5°C° 0 mm 6 m/s 735 mmHg 48%
    13:00 +7°C° 0 mm 5 m/s 735 mmHg 48%
    14:00 +8°C° 0 mm 5 m/s 734 mmHg 47%
    15:00 +7°C° 0 mm 5 m/s 734 mmHg 52%
    16:00 +5°C° 0 mm 4 m/s 735 mmHg 56%
    17:00 +4°C° 0 mm 4 m/s 735 mmHg 61%
    18:00 +4°C° 0 mm 4 m/s 735 mmHg 60%
    19:00 +4°C° 0 mm 4 m/s 735 mmHg 60%
    20:00 +3°C° 0 mm 4 m/s 735 mmHg 59%
    21:00 +3°C° 0 mm 3 m/s 735 mmHg 59%
    22:00 +3°C° 0 mm 3 m/s 735 mmHg 59%
    23:00 +3°C° 0 mm 3 m/s 735 mmHg 58%

    20 Janvier, Samedi

    Heure Température Précipitation Vent Pression Humidité
    00:00 +2°C° 0 mm 3 m/s 735 mmHg 59%
    01:00 +2°C° 0 mm 3 m/s 735 mmHg 59%
    02:00 +2°C° 0 mm 3 m/s 735 mmHg 60%
    03:00 +2°C° 0 mm 3 m/s 735 mmHg 61%
    04:00 +2°C° 0 mm 3 m/s 735 mmHg 63%
    05:00 +2°C° 0 mm 3 m/s 734 mmHg 64%
    06:00 +2°C° 0 mm 3 m/s 734 mmHg 67%
    07:00 +2°C° 0 mm 3 m/s 734 mmHg 71%
    08:00 +1°C° 0 mm 4 m/s 734 mmHg 74%
    09:00 +3°C° 0 mm 5 m/s 735 mmHg 75%
    10:00 +5°C° 0 mm 6 m/s 735 mmHg 76%
    11:00 +6°C° 0 mm 7 m/s 735 mmHg 77%
    12:00 +8°C° 0 mm 7 m/s 734 mmHg 76%
    13:00 +9°C° 0 mm 7 m/s 734 mmHg 75%
    14:00 +10°C° 0 mm 8 m/s 733 mmHg 74%
    15:00 +9°C° 0 mm 7 m/s 733 mmHg 77%
    16:00 +9°C° 0 mm 7 m/s 733 mmHg 80%
    17:00 +8°C° 0 mm 6 m/s 733 mmHg 83%
    18:00 +8°C° 0 mm 7 m/s 733 mmHg 83%
    19:00 +8°C° 0 mm 7 m/s 733 mmHg 83%
    20:00 +7°C° 0 mm 8 m/s 733 mmHg 84%
    21:00 +7°C° 0 mm 8 m/s 733 mmHg 82%
    22:00 +7°C° 0 mm 8 m/s 733 mmHg 81%
    23:00 +7°C° 0 mm 9 m/s 733 mmHg 80%

    21 Janvier, Dimanche

    Heure Température Précipitation Vent Pression Humidité
    00:00 +7°C° 0 mm 8 m/s 732 mmHg 81%
    01:00 +7°C° 0 mm 8 m/s 732 mmHg 82%
    02:00 +7°C° 0 mm 8 m/s 732 mmHg 82%
    03:00 +7°C° 0 mm 8 m/s 731 mmHg 82%
    04:00 +7°C° 0 mm 8 m/s 731 mmHg 81%
    05:00 +7°C° 0 mm 8 m/s 731 mmHg 81%
    06:00 +7°C° 0 mm 8 m/s 730 mmHg 79%
    07:00 +7°C° 0 mm 8 m/s 730 mmHg 77%
    08:00 +7°C° 0 mm 9 m/s 730 mmHg 76%
    09:00 +8°C° 0 mm 9 m/s 730 mmHg 71%
    10:00 +9°C° 0 mm 10 m/s 729 mmHg 66%
    11:00 +9°C° 0 mm 11 m/s 729 mmHg 62%
    12:00 +11°C° 0 mm 11 m/s 729 mmHg 61%
    13:00 +11°C° 0 mm 11 m/s 728 mmHg 61%
    14:00 +11°C° 0 mm 10 m/s 727 mmHg 61%
    15:00 +9°C° 0 mm 10 m/s 727 mmHg 63%
    16:00 +10°C° 0 mm 9 m/s 727 mmHg 65%
    17:00 +9°C° 0 mm 8 m/s 726 mmHg 67%
    18:00 +9°C° 0,1 mm 8 m/s 726 mmHg 68%
    19:00 +9°C° 0,1 mm 8 m/s 726 mmHg 69%
    20:00 +9°C° 0,1 mm 8 m/s 725 mmHg 71%
    21:00 +8°C° 0,3 mm 7 m/s 725 mmHg 73%
    22:00 +8°C° 0,3 mm 7 m/s 724 mmHg 76%
    23:00 +8°C° 0,3 mm 7 m/s 724 mmHg 79%
    Voir plus